STARLINK-11488, 62222

Orbit data source: Space-Track

STARLINK-11488, 62222 is a payload satellite owned by SpaceX/Seattle (US) in LEO that was launched on Thu, 05 Dec 2024 UTC via an FALCON 9 launch vehicle from the Air Force Western Test Range (AFWTR). Payload-class satellites include a variety of spacecraft equipped with specific instruments for various scientific and technological missions. These include communications satellites like Starlink; space stations such as the ISS; scientific satellites like the Hubble; Earth observation satellites from companies like Planet Labs, Umbra, and HawkEye 360; GPS; miniature CubeSats for education and research; and military/defense satellites.

Loading next visibility...
Identifier
62222, 2024-231E
Orbit
LEO
Last TLE update
8 hours ago
Origin
Manufacturer
SpaceX/Seattle
Mission
Operational Commercial Communications
Bus & Motor
STARLINK V2M, Unknown motor
Mass
730 kg wet, ~700 kg dry
Launch date (UTC)
2024-12-05 (7 months ago)
Launch vehicle
FALCON 9
Launch site
Air Force Western Test Range (AFWTR)
Object type
Payload
Rocket body
Debris
Shape & HBR
Box + 2 Pan, 14.5 m
Radar Cross Section
36.964 m², Large (>1 m²)

Expand to show TLE details & history

TLE from 8 hours ago
0 STARLINK-11488
1 62222U 24231E   25199.66567080  .00223198  00000-0  17930-2 0  9997
2 62222  53.1573 175.0469 0000886  90.0828 270.0291 15.69777337 36398
Epoch: 2025-07-18T15:58Z
TLE epoch observation values (Epoch: 2025-07-18T15:58:33.957Z)
Latitude
-0.00004°
Longitude
-1.30848°
Altitude
360.449 km
Speed
7.694 km/s
True Right ascension
11h 40m 11s
True Declination
0° 00' 00"
Sunlit
Object was in daylight at epoch
Visualization orbit readout
Latitude
18.73069°
Longitude
11.73425°
Altitude
359.287 km
Speed
7.697 km/s
Apparent Right ascension
12h 38m 12s
Apparent Declination
-52° 17' 31"
Sunlit
Object is in daylight
Visualization observer readout
Local Sidereal Time
12:30:35
Azimuth
178.833° S
Elevation
-2.223°
Doppler factor
1
Orbital elements
Apogee altitude
360.392 km
Perigee altitude
359.198 km
Semi-major axis
6,737.932 km
Eccentricity
0.00009
Inclination
53.1573°
RAAN
175.0469°
Arg. of periapsis
90.0828°
True anomaly
270.01895°
Mean anomaly
270.0291°
Eccentric anomaly
270.02402°
Mean motion
3.92422 °/min
Orbital period
91.74 mins
BSTAR
0.001793
Loading maneuver chart data...
Loading SW <> Apogee altitude chart data...
Loading historical data...
Loading historical data...
Loading historical data...
Loading historical data...
Loading historical data...
Loading historical data...
Loading historical data...
|